Theta_e
292 293 293 294 295 296 296 298 298 296 295 296 295 293 294 294 294 294 296 297 298 300 300 299 298 297 296 297 303 306 306 306 306 307 308 308 308 310
292 292 293 294 296 296 297 297 296 294 295 294 293 293 293 293 294 294 294 294 297 297 297 297 296 295 295 296 297 299 301 304 305 306 306 307 308 308
292 292 293 295 296 296 296 295 294 293 293 293 292 292 293 293 294 294 293 294 294 294 295 295 294 294 295 296 299 300 300 303 302 304 305 306 306 308
292 292 293 295 296 295 294 293 293 292 291 290 291 291 290 291 291 292 293 292 292 293 294 294 294 295 293 294 295 296 297 297 299 303 303 304 306 306
291 292 293 295 294 293 292 292 291 291 290 290 289 289 289 289 289 289 289 290 290 290 292 292 293 293 294 295 295 295 294 296 301 302 302 302 304 305
291 291 292 292 291 291 291 290 290 290 289 289 289 288 288 288 288 289 289 289 289 289 290 290 292 292 292 295 294 294 295 297 299 300 301 301 301 302
291 291 291 291 291 291 290 290 289 289 289 288 288 288 288 288 288 288 288 288 288 289 290 289 291 291 292 293 293 294 295 296 297 299 300 300 300 299
291 291 292 291 290 288 289 289 288 288 288 287 288 288 288 288 288 288 288 288 288 289 290 290 290 291 291 292 293 294 294 295 296 297 298 298 298 299
291 291 291 291 290 288 288 288 287 287 287 288 288 288 288 288 288 288 289 289 289 290 289 289 290 290 290 290 291 294 294 295 295 295 295 296 296 297
291 291 291 291 290 288 287 287 288 288 288 288 288 288 289 289 289 289 289 289 289 289 290 289 290 290 290 290 290 293 293 294 295 295 294 293 293 294
291 292 291 290 288 287 288 288 288 289 288 289 289 289 289 289 289 289 289 289 289 289 289 290 290 290 290 290 290 291 291 292 293 293 293 292 292 292
291 291 291 289 288 288 288 288 289 289 289 289 289 289 289 289 289 289 289 289 289 289 289 290 290 290 290 290 290 291 291 291 292 292 291 291 291 291
291 291 290 289 288 288 288 288 289 289 289 289 289 289 289 289 289 289 289 289 290 290 290 290 291 290 290 290 290 291 290 291 292 291 291 291 291 290
290 290 289 288 288 288 288 288 289 289 289 288 289 289 289 289 289 289 289 289 290 290 290 290 290 290 290 290 290 290 290 291 290 290 290 290 290 290
290 290 288 288 288 288 288 288 288 288 288 288 288 288 289 289 289 289 289 289 289 290 290 290 291 291 290 290 289 289 290 289 289 289 289 290 290 290
289 288 288 287 287 287 288 288 288 288 288 287 287 288 288 288 288 289 289 289 289 290 291 291 291 290 290 290 290 289 289 289 288 289 290 290 290 290
288 289 287 287 287 287 287 287 287 287 287 287 287 287 288 288 288 288 289 289 289 290 291 291 289 289 288 289 289 288 288 288 288 289 290 290 290 289
289 287 286 286 286 286 286 286 287 287 287 286 286 287 287 288 288 289 289 289 290 290 291 290 289 288 287 287 288 287 288 288 288 289 290 290 289 289
288 286 286 286 286 285 285 286 287 287 287 287 287 287 287 288 288 289 290 290 290 290 290 290 289 288 287 287 287 288 288 288 288 289 290 290 289 289
287 286 286 286 285 285 286 286 286 287 287 287 287 287 288 288 289 289 290 291 291 290 290 289 289 288 287 287 286 286 287 288 289 288 288 288 288 288
286 286 286 286 285 285 285 286 286 287 287 288 289 289 289 289 289 290 290 290 290 290 289 288 288 288 287 287 286 286 286 286 288 288 288 288 289 288
286 285 285 285 285 285 285 285 286 287 288 288 289 289 289 289 289 290 290 289 288 287 287 287 287 287 287 287 285 286 286 286 287 287 288 288 288 286
286 285 285 285 285 285 285 285 286 287 288 288 289 289 289 289 289 289 289 288 287 287 287 287 287 287 286 286 286 286 287 287 287 286 285 286 286 285
Wind_Speed
22 21 22 21 19 21 22 23 29 38 42 26 41 42 39 38 40 37 33 33 34 32 34 35 34 32 31 32 33 35 36 36 35 38 39 39 39 40
25 25 24 22 21 22 21 26 31 35 29 40 42 43 42 40 37 36 36 35 33 35 40 43 40 39 34 30 30 30 32 32 33 34 36 38 40 41
26 25 22 22 23 25 28 33 35 34 38 42 45 46 44 40 37 34 35 33 37 38 41 43 41 37 33 30 28 30 32 32 34 35 37 38 40 41
28 25 23 23 24 28 34 35 34 35 33 43 38 41 40 40 41 41 32 34 37 39 40 37 36 33 34 35 32 35 38 33 32 34 36 38 39 41
27 26 25 24 30 34 35 36 38 36 30 31 39 35 36 38 41 37 40 43 39 39 40 37 33 33 32 33 33 37 38 30 30 33 34 38 40 40
28 27 27 29 31 32 35 34 30 33 34 36 37 41 39 39 36 41 46 43 46 42 41 35 35 34 35 30 24 24 25 24 27 31 32 32 38 41
29 29 29 29 29 29 29 30 33 36 38 41 40 42 41 39 40 41 43 46 44 41 35 39 36 34 30 30 25 24 25 27 31 30 29 27 26 31
31 30 31 33 33 30 27 29 31 37 38 38 38 38 39 40 39 39 40 43 44 42 44 43 37 35 30 30 32 29 28 30 30 28 24 24 23 21
32 35 36 34 33 31 32 35 35 32 29 30 34 34 37 37 39 40 39 40 42 41 38 42 38 39 34 34 32 28 24 24 24 24 22 22 21 21
33 34 35 35 35 32 34 34 32 31 29 28 30 34 35 34 32 34 35 37 38 37 32 38 37 37 37 32 23 19 28 22 24 24 21 18 17 17
34 33 35 35 34 29 30 33 34 32 30 30 31 31 30 29 27 30 32 34 36 36 35 30 35 37 36 32 20 30 27 29 27 20 16 14 13 12
36 35 35 33 29 27 28 30 33 33 34 35 33 32 30 30 28 27 29 32 33 36 31 33 33 32 26 25 34 22 26 27 26 16 12 11 11 11
38 38 36 31 29 27 24 26 28 32 34 34 34 34 33 32 30 28 26 27 29 31 30 28 33 31 24 30 27 27 24 23 19 11 9 8 9 8
36 36 35 32 30 28 28 28 29 32 34 36 34 35 35 34 32 29 27 25 24 26 26 23 27 28 28 30 26 20 19 17 10 8 8 7 7 7
33 33 32 31 31 31 31 29 30 33 35 36 36 35 35 33 31 28 27 27 25 23 21 22 22 25 24 24 22 16 12 8 6 6 6 8 9 8
33 33 34 35 32 32 34 35 35 34 36 36 37 35 34 33 31 29 29 28 26 25 22 21 20 20 15 8 4 5 2 2 5 7 9 12 15 16
32 35 36 36 36 37 36 35 35 36 36 35 33 32 31 30 29 28 27 24 25 26 22 19 15 14 11 6 6 6 7 9 9 11 14 19 21 23
32 35 36 36 37 37 38 37 38 38 36 33 32 29 29 28 28 27 24 24 25 22 18 14 8 8 14 15 9 12 12 13 14 16 19 23 25 24
31 33 34 35 36 37 35 37 38 38 35 33 32 28 28 27 26 26 25 24 20 15 14 9 10 4 16 21 13 9 12 15 17 18 19 22 25 24
30 32 33 33 35 37 35 35 37 37 34 32 30 27 26 25 26 25 22 18 14 11 11 11 8 9 16 20 20 11 10 16 16 19 19 19 20 19
30 31 31 32 34 34 34 34 35 35 33 30 27 25 26 26 23 19 15 12 11 10 10 11 8 8 16 18 21 20 20 17 15 16 15 16 17 19
28 29 31 31 32 32 33 34 33 33 31 29 25 25 25 20 18 14 14 13 10 12 12 11 13 13 15 18 25 23 19 14 13 11 11 9 9 17
26 29 30 30 30 32 32 33 31 32 30 27 25 23 20 17 14 12 10 10 11 12 10 13 13 14 19 22 23 23 19 18 18 23 27 22 24 25
Wind_Direction
4 0 358 356 352 343 341 331 331 329 327 331 328 329 329 327 326 326 324 320 322 325 314 314 315 318 311 303 295 292 293 295 292 291 293 291 290 289
360 357 357 358 356 347 331 328 327 327 316 318 320 322 322 322 322 319 318 318 316 310 310 310 316 317 314 306 297 294 293 295 295 295 293 291 290 287
355 354 356 357 349 333 328 326 327 325 316 314 319 323 324 326 325 320 319 318 309 310 306 309 315 313 307 303 304 297 294 295 296 296 295 294 292 292
355 355 354 351 333 325 327 327 325 327 316 315 324 324 325 327 327 324 320 315 312 311 308 314 315 312 314 307 298 297 300 302 297 299 299 296 295 293
353 351 351 338 328 329 327 326 324 324 327 319 321 321 321 324 323 324 322 326 321 322 322 328 327 328 320 311 301 295 295 301 306 314 316 315 308 303
349 345 340 333 330 325 321 326 332 326 324 321 318 318 319 322 320 322 322 325 324 324 328 331 334 333 334 323 312 308 311 309 310 315 313 315 316 321
346 343 339 335 328 325 332 330 327 325 322 320 317 318 319 322 323 324 320 322 325 326 332 326 330 338 345 347 342 330 317 313 311 313 310 312 312 319
345 344 344 345 340 336 329 325 322 320 319 319 319 317 318 321 323 323 320 318 316 328 326 324 332 335 340 332 326 326 311 311 316 314 315 316 313 306
347 347 345 343 341 339 329 324 324 326 326 325 319 321 321 323 322 320 318 317 315 321 325 319 325 326 336 336 333 335 326 319 319 317 316 317 318 314
348 346 344 343 340 337 330 328 331 332 334 327 321 320 320 322 319 318 318 317 316 319 320 313 326 327 332 339 336 329 351 344 337 326 325 323 324 320
349 349 347 345 345 344 334 333 334 336 334 331 326 323 321 319 322 323 324 322 314 317 323 316 321 322 329 338 341 336 332 341 341 333 331 334 333 329
349 350 349 348 347 344 338 336 335 337 334 332 332 330 334 334 334 331 327 322 320 316 321 321 321 324 321 327 328 332 335 336 340 336 338 341 341 338
348 348 348 351 348 344 343 339 336 336 335 332 333 330 330 335 335 332 330 325 321 317 321 323 319 325 316 314 321 325 334 342 341 350 356 360 9 16
345 346 347 348 346 349 348 345 343 341 339 339 331 328 330 334 335 332 329 326 320 318 318 320 311 311 314 312 309 320 328 340 356 7 15 23 28 37
344 348 345 348 353 353 351 348 347 346 343 337 333 329 331 332 336 335 332 333 328 328 327 326 322 312 308 302 300 306 319 353 21 24 34 40 39 35
345 346 351 356 354 352 351 352 350 347 343 339 335 332 334 335 337 340 337 336 335 335 341 338 329 329 334 339 339 305 323 64 55 53 61 71 69 62
343 351 354 356 354 352 349 348 347 346 345 342 339 337 337 337 338 339 339 340 338 339 345 344 344 5 16 18 63 106 110 105 87 97 97 84 75 66
348 353 355 355 352 349 347 345 348 349 347 346 344 343 341 341 340 343 345 345 344 346 348 350 7 14 64 72 78 110 108 103 113 112 101 88 78 69
354 353 353 352 348 346 344 346 346 350 350 350 347 346 345 343 344 347 348 346 351 356 357 19 3 69 96 87 95 90 103 112 117 107 98 88 80 71
353 352 350 349 346 343 343 345 348 349 352 352 352 351 352 350 348 348 352 355 0 4 15 25 46 117 119 109 98 93 90 116 115 105 96 90 85 83
350 349 349 347 344 342 345 346 346 348 352 351 355 355 353 350 355 2 8 10 6 13 58 70 66 109 119 115 100 97 99 97 98 92 90 90 89 82
347 347 346 347 343 344 346 345 344 348 351 351 351 349 351 357 2 5 5 9 41 82 88 91 114 119 119 112 109 108 99 96 89 78 61 67 82 88
346 345 345 345 345 345 345 343 343 347 348 350 353 351 355 0 6 5 18 53 83 94 94 108 118 116 115 114 115 110 108 103 99 92 85 84 86 87